Time,TemperatureF,DewpointF,PressureIn,WindDirection,WindDirectionDegrees,WindSpeedMPH,WindSpeedGustMPH,Humidity,HourlyPrecipIn,Conditions,Clouds,dailyrainin,SoftwareType,DateUTC
2013-07-05 00:02:00,77.1,74.6,29.96,South,171,4.0,8.0,92,0.05,,,0.00,Wunderground v.1.15,2013-07-05 05:02:00,
2013-07-05 00:07:00,77.4,73.9,29.97,SSE,159,8.0,12.0,89,0.04,,,0.00,Wunderground v.1.15,2013-07-05 05:07:00,
2013-07-05 00:13:00,77.7,74.9,29.98,South,181,11.0,19.0,91,0.00,,,0.00,Wunderground v.1.15,2013-07-05 05:13:00,
2013-07-05 00:19:00,77.0,74.2,29.97,SW,219,13.0,19.0,91,0.00,,,0.00,Wunderground v.1.15,2013-07-05 05:19:00,
2013-07-05 00:25:00,76.6,74.4,29.98,ENE,70,3.0,10.0,93,0.64,,,0.05,Wunderground v.1.15,2013-07-05 05:25:00,
2013-07-05 00:31:00,75.6,73.8,29.98,SSE,152,2.0,6.0,94,0.55,,,0.12,Wunderground v.1.15,2013-07-05 05:31:00,
2013-07-05 00:37:00,74.9,73.7,29.98,West,276,3.0,6.0,96,0.30,,,0.15,Wunderground v.1.15,2013-07-05 05:37:00,
2013-07-05 00:43:00,74.3,73.7,29.97,West,268,1.0,2.0,98,0.12,,,0.17,Wunderground v.1.15,2013-07-05 05:43:00,
2013-07-05 00:49:00,74.1,73.5,29.99,South,191,10.0,16.0,98,5.38,,,0.39,Wunderground v.1.15,2013-07-05 05:49:00,
2013-07-05 00:54:00,74.1,73.8,29.98,West,276,2.0,5.0,99,1.21,,,0.68,Wunderground v.1.15,2013-07-05 05:54:00,
2013-07-05 01:00:00,73.6,73.3,29.97,West,267,1.0,3.0,99,0.28,,,0.77,Wunderground v.1.15,2013-07-05 06:00:00,
2013-07-05 01:06:00,73.4,73.1,29.97,SW,224,2.0,3.0,99,0.64,,,0.87,Wunderground v.1.15,2013-07-05 06:06:00,
2013-07-05 01:11:00,73.6,73.3,29.97,WNW,298,4.0,6.0,99,1.11,,,1.02,Wunderground v.1.15,2013-07-05 06:11:00,
2013-07-05 01:17:00,73.8,73.5,29.97,NW,321,5.0,6.0,99,1.59,,,1.15,Wunderground v.1.15,2013-07-05 06:17:00,
2013-07-05 01:22:00,73.9,73.6,29.97,NNE,19,1.0,4.0,99,0.12,,,1.16,Wunderground v.1.15,2013-07-05 06:22:00,
2013-07-05 01:27:00,73.9,73.6,29.96,NW,323,1.0,4.0,99,0.06,,,1.16,Wunderground v.1.15,2013-07-05 06:27:00,
2013-07-05 01:33:00,73.9,73.6,29.96,NE,53,0.0,1.0,99,0.04,,,1.16,Wunderground v.1.15,2013-07-05 06:33:00,
2013-07-05 01:39:00,73.8,73.8,29.95,NW,316,1.0,1.0,100,0.00,,,1.16,Wunderground v.1.15,2013-07-05 06:39:00,
2013-07-05 01:45:00,73.8,73.8,29.95,WNW,297,1.0,2.0,100,0.00,,,1.17,Wunderground v.1.15,2013-07-05 06:45:00,
2013-07-05 01:51:00,73.8,73.8,29.95,WNW,297,0.0,0.0,100,0.00,,,1.17,Wunderground v.1.15,2013-07-05 06:51:00,
2013-07-05 01:57:00,74.5,74.5,29.95,SSW,194,2.0,3.0,100,0.00,,,1.17,Wunderground v.1.15,2013-07-05 06:57:00,
2013-07-05 02:02:00,75.5,75.5,29.95,SSW,207,2.0,3.0,100,0.00,,,1.17,Wunderground v.1.15,2013-07-05 07:02:00,
2013-07-05 02:07:00,76.1,76.1,29.95,SSW,202,3.0,5.0,100,0.00,,,1.17,Wunderground v.1.15,2013-07-05 07:07:00,
2013-07-05 02:12:00,76.4,76.4,29.94,WSW,252,1.0,2.0,100,0.00,,,1.17,Wunderground v.1.15,2013-07-05 07:12:00,
2013-07-05 02:17:00,76.4,76.4,29.95,West,276,1.0,3.0,100,0.00,,,1.17,Wunderground v.1.15,2013-07-05 07:17:00,
2013-07-05 02:22:00,76.4,76.4,29.95,West,281,1.0,2.0,100,0.00,,,1.17,Wunderground v.1.15,2013-07-05 07:22:00,
2013-07-05 02:27:00,76.4,76.4,29.95,West,280,0.0,2.0,100,0.00,,,1.18,Wunderground v.1.15,2013-07-05 07:27:00,
2013-07-05 02:32:00,76.5,76.5,29.95,West,278,0.0,1.0,100,0.00,,,1.18,Wunderground v.1.15,2013-07-05 07:32:00,
2013-07-05 02:37:00,76.5,76.5,29.95,SW,224,2.0,7.0,100,0.00,,,1.18,Wunderground v.1.15,2013-07-05 07:37:00,
2013-07-05 02:42:00,76.2,76.2,29.95,WNW,294,5.0,6.0,100,0.00,,,1.18,Wunderground v.1.15,2013-07-05 07:42:00,
2013-07-05 02:47:00,76.0,76.0,29.95,West,281,2.0,6.0,100,0.00,,,1.18,Wunderground v.1.15,2013-07-05 07:47:00,
2013-07-05 02:52:00,75.7,75.7,29.95,WNW,291,1.0,3.0,100,0.00,,,1.18,Wunderground v.1.15,2013-07-05 07:52:00,
2013-07-05 02:57:00,75.7,75.7,29.95,NNW,328,1.0,3.0,100,0.00,,,1.18,Wunderground v.1.15,2013-07-05 07:57:00,
2013-07-05 03:02:00,75.4,75.4,29.96,NW,312,1.0,3.0,100,0.00,,,1.18,Wunderground v.1.15,2013-07-05 08:02:00,
2013-07-05 03:07:00,75.2,75.2,29.96,NW,314,0.0,3.0,100,0.00,,,1.18,Wunderground v.1.15,2013-07-05 08:07:00,
2013-07-05 03:12:00,74.9,74.9,29.96,NNW,341,3.0,4.0,100,0.00,,,1.18,Wunderground v.1.15,2013-07-05 08:12:00,
2013-07-05 03:17:00,74.6,74.6,29.96,NW,321,1.0,5.0,100,0.00,,,1.18,Wunderground v.1.15,2013-07-05 08:17:00,
2013-07-05 03:22:00,74.5,74.5,29.96,NNW,328,0.0,2.0,100,0.00,,,1.18,Wunderground v.1.15,2013-07-05 08:22:00,
2013-07-05 03:27:00,74.4,74.4,29.96,NNE,25,1.0,2.0,100,0.00,,,1.18,Wunderground v.1.15,2013-07-05 08:27:00,
2013-07-05 03:32:00,74.3,74.3,29.96,NNW,345,1.0,3.0,100,0.00,,,1.18,Wunderground v.1.15,2013-07-05 08:32:00,
2013-07-05 03:37:00,74.1,74.1,29.96,NW,318,1.0,3.0,100,0.00,,,1.18,Wunderground v.1.15,2013-07-05 08:37:00,
2013-07-05 03:42:00,74.0,74.0,29.96,NW,324,0.0,2.0,100,0.00,,,1.18,Wunderground v.1.15,2013-07-05 08:42:00,
2013-07-05 03:47:00,74.0,74.0,29.96,NNW,329,1.0,2.0,100,0.00,,,1.18,Wunderground v.1.15,2013-07-05 08:47:00,
2013-07-05 03:52:00,73.9,73.9,29.96,North,6,0.0,1.0,100,0.00,,,1.18,Wunderground v.1.15,2013-07-05 08:52:00,
2013-07-05 03:57:00,73.8,73.8,29.96,NNE,22,1.0,3.0,100,0.00,,,1.18,Wunderground v.1.15,2013-07-05 08:57:00,
2013-07-05 04:03:00,73.8,73.8,29.96,North,352,1.0,3.0,100,0.00,,,1.18,Wunderground v.1.15,2013-07-05 09:03:00,
2013-07-05 04:08:00,73.6,73.6,29.96,NNW,342,3.0,3.0,100,0.00,,,1.18,Wunderground v.1.15,2013-07-05 09:08:00,
2013-07-05 04:13:00,73.5,73.5,29.97,NE,39,1.0,2.0,100,0.00,,,1.18,Wunderground v.1.15,2013-07-05 09:13:00,
2013-07-05 04:19:00,73.3,73.3,29.97,NNE,33,2.0,3.0,100,0.00,,,1.18,Wunderground v.1.15,2013-07-05 09:19:00,
2013-07-05 04:25:00,73.1,73.1,29.97,NNE,23,1.0,3.0,100,0.00,,,1.18,Wunderground v.1.15,2013-07-05 09:25:00,
2013-07-05 04:30:00,73.1,73.1,29.97,NNW,346,2.0,2.0,100,0.00,,,1.18,Wunderground v.1.15,2013-07-05 09:30:00,
2013-07-05 04:35:00,73.0,73.0,29.97,North,1,1.0,3.0,100,0.00,,,1.18,Wunderground v.1.15,2013-07-05 09:35:00,
2013-07-05 04:40:00,72.9,72.9,29.96,NNE,23,1.0,2.0,100,0.00,,,1.18,Wunderground v.1.15,2013-07-05 09:40:00,
2013-07-05 04:45:00,72.9,72.9,29.96,North,4,2.0,2.0,100,0.00,,,1.18,Wunderground v.1.15,2013-07-05 09:45:00,
2013-07-05 04:50:00,72.9,72.9,29.96,North,1,0.0,1.0,100,0.00,,,1.18,Wunderground v.1.15,2013-07-05 09:50:00,
2013-07-05 04:55:00,72.8,72.8,29.95,North,4,2.0,3.0,100,0.00,,,1.18,Wunderground v.1.15,2013-07-05 09:55:00,
2013-07-05 05:00:00,72.8,72.8,29.95,NNW,333,1.0,2.0,100,0.00,,,1.18,Wunderground v.1.15,2013-07-05 10:00:00,
2013-07-05 05:05:00,72.8,72.8,29.95,NNW,328,1.0,2.0,100,0.00,,,1.18,Wunderground v.1.15,2013-07-05 10:05:00,
2013-07-05 05:10:00,72.7,72.7,29.95,North,352,0.0,1.0,100,0.00,,,1.18,Wunderground v.1.15,2013-07-05 10:10:00,
2013-07-05 05:16:00,72.7,72.7,29.95,North,352,0.0,1.0,100,0.00,,,1.18,Wunderground v.1.15,2013-07-05 10:16:00,
2013-07-05 05:21:00,72.8,72.8,29.95,North,354,0.0,1.0,100,0.00,,,1.18,Wunderground v.1.15,2013-07-05 10:21:00,
2013-07-05 05:27:00,72.7,72.7,29.95,North,358,1.0,1.0,100,0.00,,,1.18,Wunderground v.1.15,2013-07-05 10:27:00,
2013-07-05 05:32:00,72.7,72.7,29.95,North,5,2.0,2.0,100,0.00,,,1.18,Wunderground v.1.15,2013-07-05 10:32:00,
2013-07-05 05:37:00,72.7,72.7,29.95,ENE,68,0.0,2.0,100,0.00,,,1.18,Wunderground v.1.15,2013-07-05 10:37:00,
2013-07-05 05:42:00,72.7,72.7,29.95,ENE,65,1.0,2.0,100,0.00,,,1.18,Wunderground v.1.15,2013-07-05 10:42:00,
2013-07-05 05:47:00,72.8,72.8,29.96,ENE,58,1.0,2.0,100,0.00,,,1.18,Wunderground v.1.15,2013-07-05 10:47:00,
2013-07-05 05:52:00,72.8,72.8,29.96,ENE,78,1.0,3.0,100,0.00,,,1.18,Wunderground v.1.15,2013-07-05 10:52:00,
2013-07-05 05:57:00,72.8,72.8,29.96,ENE,76,2.0,4.0,100,0.00,,,1.18,Wunderground v.1.15,2013-07-05 10:57:00,
2013-07-05 06:02:00,72.8,72.8,29.96,NE,55,0.0,3.0,100,0.00,,,1.18,Wunderground v.1.15,2013-07-05 11:02:00,
2013-07-05 06:08:00,72.9,72.9,29.96,NE,55,0.0,3.0,100,0.00,,,1.18,Wunderground v.1.15,2013-07-05 11:08:00,
2013-07-05 06:13:00,72.9,72.9,29.96,ENE,62,1.0,1.0,100,0.00,,,1.18,Wunderground v.1.15,2013-07-05 11:13:00,
2013-07-05 06:18:00,72.9,72.9,29.96,ENE,63,0.0,2.0,100,0.00,,,1.18,Wunderground v.1.15,2013-07-05 11:18:00,
2013-07-05 06:23:00,72.9,72.9,29.96,ENE,63,0.0,0.0,100,0.00,,,1.18,Wunderground v.1.15,2013-07-05 11:23:00,
2013-07-05 06:28:00,73.0,73.0,29.97,NE,56,0.0,1.0,100,0.00,,,1.18,Wunderground v.1.15,2013-07-05 11:28:00,
2013-07-05 06:33:00,73.1,73.1,29.97,ENE,75,3.0,3.0,100,0.00,,,1.18,Wunderground v.1.15,2013-07-05 11:33:00,
2013-07-05 06:38:00,73.3,73.3,29.96,NE,41,0.0,3.0,100,0.00,,,1.18,Wunderground v.1.15,2013-07-05 11:38:00,
2013-07-05 06:43:00,73.7,73.7,29.97,ENE,67,0.0,2.0,100,0.00,,,1.18,Wunderground v.1.15,2013-07-05 11:43:00,
2013-07-05 06:48:00,74.0,74.0,29.96,ENE,70,1.0,2.0,100,0.00,,,1.18,Wunderground v.1.15,2013-07-05 11:48:00,
2013-07-05 06:54:00,74.3,74.3,29.96,ENE,64,2.0,3.0,100,0.00,,,1.18,Wunderground v.1.15,2013-07-05 11:54:00,
2013-07-05 06:59:00,74.4,74.4,29.96,ENE,67,0.0,3.0,100,0.00,,,1.18,Wunderground v.1.15,2013-07-05 11:59:00,
2013-07-05 07:04:00,74.7,74.7,29.96,ENE,78,0.0,1.0,100,0.00,,,1.18,Wunderground v.1.15,2013-07-05 12:04:00,
2013-07-05 07:10:00,75.0,75.0,29.96,ENE,78,0.0,0.0,100,0.00,,,1.18,Wunderground v.1.15,2013-07-05 12:10:00,
2013-07-05 07:15:00,75.3,75.3,29.96,ENE,78,0.0,2.0,100,0.00,,,1.18,Wunderground v.1.15,2013-07-05 12:15:00,
2013-07-05 07:20:00,75.9,75.9,29.96,East,89,0.0,1.0,100,0.00,,,1.18,Wunderground v.1.15,2013-07-05 12:20:00,
2013-07-05 07:26:00,76.3,76.3,29.96,East,94,1.0,1.0,100,0.00,,,1.18,Wunderground v.1.15,2013-07-05 12:26:00,
2013-07-05 07:31:00,76.4,76.4,29.96,ENE,64,0.0,1.0,100,0.00,,,1.18,Wunderground v.1.15,2013-07-05 12:31:00,
2013-07-05 07:36:00,76.5,76.5,29.97,East,86,1.0,3.0,100,0.00,,,1.18,Wunderground v.1.15,2013-07-05 12:36:00,
2013-07-05 07:41:00,76.6,76.6,29.97,East,95,0.0,1.0,100,0.00,,,1.18,Wunderground v.1.15,2013-07-05 12:41:00,
2013-07-05 07:46:00,76.8,76.8,29.97,East,88,2.0,4.0,100,0.00,,,1.18,Wunderground v.1.15,2013-07-05 12:46:00,
2013-07-05 07:52:00,77.0,77.0,29.97,East,79,5.0,8.0,100,0.00,,,1.18,Wunderground v.1.15,2013-07-05 12:52:00,
2013-07-05 07:57:00,76.8,76.8,29.98,ESE,108,3.0,8.0,100,0.00,,,1.18,Wunderground v.1.15,2013-07-05 12:57:00,
2013-07-05 08:02:00,77.0,77.0,29.97,East,96,3.0,5.0,100,0.00,,,1.18,Wunderground v.1.15,2013-07-05 13:02:00,
2013-07-05 08:07:00,77.3,77.3,29.98,ESE,113,6.0,6.0,100,0.00,,,1.18,Wunderground v.1.15,2013-07-05 13:07:00,
2013-07-05 08:12:00,77.2,77.2,29.98,SE,125,4.0,8.0,100,0.00,,,1.18,Wunderground v.1.15,2013-07-05 13:12:00,
2013-07-05 08:17:00,77.4,77.4,29.98,East,99,3.0,8.0,100,0.00,,,1.18,Wunderground v.1.15,2013-07-05 13:17:00,
2013-07-05 08:23:00,77.5,77.5,29.98,ESE,122,2.0,4.0,100,0.00,,,1.18,Wunderground v.1.15,2013-07-05 13:23:00,
2013-07-05 08:28:00,77.6,77.6,29.98,ESE,114,2.0,5.0,100,0.00,,,1.18,Wunderground v.1.15,2013-07-05 13:28:00,
2013-07-05 08:33:00,77.6,77.6,29.98,SE,128,1.0,4.0,100,0.00,,,1.18,Wunderground v.1.15,2013-07-05 13:33:00,
2013-07-05 08:38:00,77.6,77.6,29.98,East,101,3.0,6.0,100,0.00,,,1.18,Wunderground v.1.15,2013-07-05 13:38:00,
2013-07-05 08:43:00,77.6,77.6,29.99,ESE,105,2.0,4.0,100,0.00,,,1.18,Wunderground v.1.15,2013-07-05 13:43:00,
2013-07-05 08:48:00,77.5,77.5,29.99,ESE,117,2.0,5.0,100,0.00,,,1.18,Wunderground v.1.15,2013-07-05 13:48:00,
2013-07-05 08:53:00,77.6,77.6,29.99,ESE,117,2.0,5.0,100,0.00,,,1.18,Wunderground v.1.15,2013-07-05 13:53:00,
2013-07-05 08:58:00,77.6,77.6,29.99,East,95,4.0,5.0,100,0.00,,,1.18,Wunderground v.1.15,2013-07-05 13:58:00,
2013-07-05 09:04:00,77.3,77.0,29.98,East,95,4.0,4.0,99,0.00,,,1.18,Wunderground v.1.15,2013-07-05 14:04:00,
2013-07-05 09:09:00,77.2,76.9,29.97,ENE,71,3.0,5.0,99,0.00,,,1.18,Wunderground v.1.15,2013-07-05 14:09:00,
2013-07-05 09:14:00,77.5,76.9,29.98,NW,315,1.0,3.0,98,0.00,,,1.18,Wunderground v.1.15,2013-07-05 14:14:00,
2013-07-05 09:20:00,77.9,77.3,29.99,NW,305,1.0,3.0,98,0.00,,,1.18,Wunderground v.1.15,2013-07-05 14:20:00,
2013-07-05 09:25:00,77.7,77.1,29.99,NNW,338,1.0,3.0,98,0.00,,,1.18,Wunderground v.1.15,2013-07-05 14:25:00,
2013-07-05 09:30:00,77.4,76.8,30.00,NNE,27,1.0,1.0,98,0.00,,,1.18,Wunderground v.1.15,2013-07-05 14:30:00,
2013-07-05 09:35:00,77.3,76.7,30.00,SE,129,1.0,2.0,98,0.00,,,1.18,Wunderground v.1.15,2013-07-05 14:35:00,
2013-07-05 09:40:00,77.4,76.8,30.00,SE,129,1.0,1.0,98,0.00,,,1.18,Wunderground v.1.15,2013-07-05 14:40:00,
2013-07-05 09:46:00,77.5,76.9,30.00,SE,138,1.0,6.0,98,0.00,,,1.18,Wunderground v.1.15,2013-07-05 14:46:00,
2013-07-05 09:52:00,77.7,76.8,30.01,SE,142,2.0,4.0,97,0.00,,,1.19,Wunderground v.1.15,2013-07-05 14:52:00,
2013-07-05 09:57:00,77.8,76.6,30.01,ESE,120,2.0,6.0,96,0.00,,,1.19,Wunderground v.1.15,2013-07-05 14:57:00,
2013-07-05 10:02:00,77.3,76.7,30.01,ESE,104,2.0,3.0,98,0.08,,,1.20,Wunderground v.1.15,2013-07-05 15:02:00,
2013-07-05 10:07:00,76.8,76.2,30.01,NNE,29,2.0,4.0,98,0.12,,,1.21,Wunderground v.1.15,2013-07-05 15:07:00,
2013-07-05 10:12:00,76.6,76.3,30.01,ESE,104,2.0,4.0,99,0.07,,,1.21,Wunderground v.1.15,2013-07-05 15:12:00,
2013-07-05 10:17:00,76.6,76.3,30.00,SE,127,4.0,7.0,99,0.07,,,1.22,Wunderground v.1.15,2013-07-05 15:17:00,
2013-07-05 10:23:00,76.7,76.4,30.01,East,101,5.0,7.0,99,0.11,,,1.23,Wunderground v.1.15,2013-07-05 15:23:00,
2013-07-05 10:28:00,77.0,77.0,30.02,SE,126,4.0,8.0,100,0.08,,,1.24,Wunderground v.1.15,2013-07-05 15:28:00,
2013-07-05 10:33:00,77.1,77.1,30.02,ESE,117,6.0,6.0,100,0.08,,,1.25,Wunderground v.1.15,2013-07-05 15:33:00,
2013-07-05 10:38:00,77.1,77.1,30.02,SE,141,3.0,6.0,100,0.18,,,1.26,Wunderground v.1.15,2013-07-05 15:38:00,
2013-07-05 10:43:00,77.1,77.1,30.02,SE,136,2.0,5.0,100,0.23,,,1.28,Wunderground v.1.15,2013-07-05 15:43:00,
2013-07-05 10:48:00,77.0,77.0,30.02,SE,129,2.0,5.0,100,0.18,,,1.30,Wunderground v.1.15,2013-07-05 15:48:00,
2013-07-05 10:50:00,76.9,76.9,30.02,ESE,103,5.0,5.0,100,0.18,,,1.30,Wunderground v.1.15,2013-07-05 15:50:00,
2013-07-05 10:55:00,76.7,76.7,30.02,ESE,122,4.0,6.0,100,0.15,,,1.31,Wunderground v.1.15,2013-07-05 15:55:00,
2013-07-05 11:00:00,76.8,76.8,30.02,SE,138,3.0,4.0,100,0.09,,,1.32,Wunderground v.1.15,2013-07-05 16:00:00,
2013-07-05 11:05:00,76.4,76.4,30.02,South,170,5.0,7.0,100,0.11,,,1.33,Wunderground v.1.15,2013-07-05 16:05:00,
2013-07-05 11:10:00,75.7,75.4,30.02,SE,146,4.0,5.0,99,0.10,,,1.34,Wunderground v.1.15,2013-07-05 16:10:00,
2013-07-05 11:15:00,75.1,74.8,30.02,SSE,166,6.0,8.0,99,0.11,,,1.35,Wunderground v.1.15,2013-07-05 16:15:00,
2013-07-05 11:20:00,74.9,74.6,30.03,SSE,155,4.0,6.0,99,0.14,,,1.36,Wunderground v.1.15,2013-07-05 16:20:00,
2013-07-05 11:25:00,74.7,74.4,30.03,SSE,155,6.0,10.0,99,0.10,,,1.37,Wunderground v.1.15,2013-07-05 16:25:00,
2013-07-05 11:30:00,74.7,74.4,30.04,SSE,153,7.0,10.0,99,0.10,,,1.37,Wunderground v.1.15,2013-07-05 16:30:00,
2013-07-05 11:35:00,74.8,74.5,30.04,SE,136,7.0,11.0,99,0.09,,,1.38,Wunderground v.1.15,2013-07-05 16:35:00,
2013-07-05 11:40:00,74.8,74.8,30.03,SSE,150,6.0,7.0,100,0.10,,,1.39,Wunderground v.1.15,2013-07-05 16:40:00,
2013-07-05 11:45:00,74.9,74.9,30.03,SSE,150,8.0,10.0,100,0.12,,,1.40,Wunderground v.1.15,2013-07-05 16:45:00,
2013-07-05 11:50:00,75.2,75.2,30.03,SE,142,6.0,8.0,100,0.11,,,1.41,Wunderground v.1.15,2013-07-05 16:50:00,
2013-07-05 11:55:00,75.5,75.5,30.03,SE,141,6.0,11.0,100,0.10,,,1.42,Wunderground v.1.15,2013-07-05 16:55:00,
2013-07-05 12:00:00,75.7,75.7,30.03,SSE,148,4.0,8.0,100,0.10,,,1.42,Wunderground v.1.15,2013-07-05 17:00:00,
2013-07-05 12:05:00,75.8,75.8,30.03,ESE,122,4.0,13.0,100,0.07,,,1.43,Wunderground v.1.15,2013-07-05 17:05:00,
2013-07-05 12:10:00,75.7,75.7,30.03,ESE,122,5.0,9.0,100,0.10,,,1.44,Wunderground v.1.15,2013-07-05 17:10:00,
2013-07-05 12:15:00,75.5,75.5,30.03,SSE,166,6.0,14.0,100,0.12,,,1.45,Wunderground v.1.15,2013-07-05 17:15:00,
2013-07-05 12:20:00,74.9,74.9,30.04,SSE,148,10.0,11.0,100,0.15,,,1.46,Wunderground v.1.15,2013-07-05 17:20:00,
2013-07-05 12:26:00,74.4,74.1,30.05,SSE,159,12.0,14.0,99,0.14,,,1.48,Wunderground v.1.15,2013-07-05 17:26:00,
2013-07-05 12:31:00,73.6,73.3,30.04,SSE,163,8.0,13.0,99,0.18,,,1.49,Wunderground v.1.15,2013-07-05 17:31:00,
2013-07-05 12:36:00,73.5,73.2,30.04,SE,138,9.0,17.0,99,0.25,,,1.51,Wunderground v.1.15,2013-07-05 17:36:00,
2013-07-05 12:41:00,73.3,73.0,30.05,SSW,194,5.0,9.0,99,0.24,,,1.53,Wunderground v.1.15,2013-07-05 17:41:00,
2013-07-05 12:46:00,73.0,72.7,30.05,SSE,152,9.0,17.0,99,0.30,,,1.56,Wunderground v.1.15,2013-07-05 17:46:00,
2013-07-05 12:51:00,73.0,72.7,30.05,ESE,118,6.0,12.0,99,0.34,,,1.58,Wunderground v.1.15,2013-07-05 17:51:00,
2013-07-05 12:56:00,72.9,72.3,30.05,SE,129,6.0,12.0,98,0.26,,,1.61,Wunderground v.1.15,2013-07-05 17:56:00,
2013-07-05 13:01:00,73.6,73.0,30.05,SE,142,4.0,7.0,98,0.21,,,1.62,Wunderground v.1.15,2013-07-05 18:01:00,
2013-07-05 13:06:00,74.2,72.7,30.05,ESE,120,4.0,16.0,95,0.15,,,1.63,Wunderground v.1.15,2013-07-05 18:06:00,
2013-07-05 13:11:00,74.3,71.8,30.04,ESE,110,7.0,14.0,92,0.14,,,1.65,Wunderground v.1.15,2013-07-05 18:11:00,
2013-07-05 13:16:00,74.3,71.8,30.04,ESE,122,9.0,14.0,92,0.11,,,1.65,Wunderground v.1.15,2013-07-05 18:16:00,
2013-07-05 13:21:00,74.3,71.5,30.04,ESE,122,7.0,12.0,91,0.10,,,1.66,Wunderground v.1.15,2013-07-05 18:21:00,
2013-07-05 13:26:00,74.5,72.7,30.04,South,177,10.0,12.0,94,0.07,,,1.67,Wunderground v.1.15,2013-07-05 18:26:00,
2013-07-05 13:31:00,74.6,72.4,30.04,East,85,5.0,10.0,93,0.07,,,1.67,Wunderground v.1.15,2013-07-05 18:31:00,
2013-07-05 13:36:00,74.6,71.8,30.04,SSE,153,5.0,15.0,91,0.06,,,1.67,Wunderground v.1.15,2013-07-05 18:36:00,
2013-07-05 13:41:00,74.8,72.3,30.04,SE,143,8.0,13.0,92,0.06,,,1.68,Wunderground v.1.15,2013-07-05 18:41:00,
2013-07-05 13:46:00,74.8,71.7,30.04,SE,146,8.0,14.0,90,0.06,,,1.68,Wunderground v.1.15,2013-07-05 18:46:00,
2013-07-05 13:51:00,74.9,72.1,30.04,South,170,8.0,16.0,91,0.06,,,1.69,Wunderground v.1.15,2013-07-05 18:51:00,
2013-07-05 13:56:00,74.9,71.8,30.04,South,176,13.0,16.0,90,0.06,,,1.69,Wunderground v.1.15,2013-07-05 18:56:00,
2013-07-05 14:01:00,74.8,71.3,30.03,ESE,110,7.0,16.0,89,0.06,,,1.70,Wunderground v.1.15,2013-07-05 19:01:00,
2013-07-05 14:06:00,74.7,71.2,30.03,ESE,110,7.0,16.0,89,0.06,,,1.70,Wunderground v.1.15,2013-07-05 19:06:00,
2013-07-05 14:11:00,74.7,70.9,30.03,ESE,122,6.0,12.0,88,0.04,,,1.70,Wunderground v.1.15,2013-07-05 19:11:00,
2013-07-05 14:16:00,74.7,71.2,30.03,SSE,155,4.0,15.0,89,0.00,,,1.71,Wunderground v.1.15,2013-07-05 19:16:00,
2013-07-05 14:21:00,74.6,70.8,30.02,SE,136,5.0,13.0,88,0.00,,,1.71,Wunderground v.1.15,2013-07-05 19:21:00,
2013-07-05 14:26:00,74.4,70.6,30.02,ESE,113,14.0,14.0,88,0.00,,,1.71,Wunderground v.1.15,2013-07-05 19:26:00,
2013-07-05 14:31:00,74.5,71.0,30.02,ESE,114,8.0,12.0,89,0.00,,,1.71,Wunderground v.1.15,2013-07-05 19:31:00,
2013-07-05 14:36:00,74.6,71.5,30.01,SE,142,9.0,14.0,90,0.00,,,1.72,Wunderground v.1.15,2013-07-05 19:36:00,
2013-07-05 14:41:00,74.5,71.0,30.01,ESE,122,10.0,13.0,89,0.00,,,1.72,Wunderground v.1.15,2013-07-05 19:41:00,
2013-07-05 14:46:00,74.4,70.9,30.00,SE,146,3.0,17.0,89,0.00,,,1.72,Wunderground v.1.15,2013-07-05 19:46:00,
2013-07-05 14:51:00,74.2,70.4,29.99,ESE,120,10.0,12.0,88,0.00,,,1.72,Wunderground v.1.15,2013-07-05 19:51:00,
2013-07-05 14:56:00,74.5,71.0,29.99,ESE,108,7.0,18.0,89,0.00,,,1.72,Wunderground v.1.15,2013-07-05 19:56:00,
2013-07-05 15:01:00,74.8,71.3,29.98,ESE,113,11.0,13.0,89,0.00,,,1.72,Wunderground v.1.15,2013-07-05 20:01:00,
2013-07-05 15:06:00,75.1,71.6,29.97,ENE,75,14.0,19.0,89,0.00,,,1.72,Wunderground v.1.15,2013-07-05 20:06:00,
2013-07-05 15:11:00,75.3,70.8,29.95,SE,135,12.0,17.0,86,0.00,,,1.72,Wunderground v.1.15,2013-07-05 20:11:00,
2013-07-05 15:16:00,75.5,71.4,29.95,East,94,20.0,21.0,87,0.00,,,1.72,Wunderground v.1.15,2013-07-05 20:16:00,
2013-07-05 15:21:00,75.5,71.0,29.94,SE,134,13.0,21.0,86,0.00,,,1.72,Wunderground v.1.15,2013-07-05 20:21:00,
2013-07-05 15:26:00,75.5,71.0,29.93,ESE,113,11.0,22.0,86,0.00,,,1.72,Wunderground v.1.15,2013-07-05 20:26:00,
2013-07-05 15:31:00,75.6,71.5,29.93,SE,145,12.0,16.0,87,0.00,,,1.72,Wunderground v.1.15,2013-07-05 20:31:00,
2013-07-05 15:36:00,75.4,70.2,29.93,East,91,12.0,20.0,84,0.00,,,1.72,Wunderground v.1.15,2013-07-05 20:36:00,
2013-07-05 15:41:00,75.6,70.4,29.92,SE,142,18.0,19.0,84,0.00,,,1.72,Wunderground v.1.15,2013-07-05 20:41:00,
2013-07-05 15:46:00,75.7,70.5,29.92,East,101,7.0,19.0,84,0.00,,,1.72,Wunderground v.1.15,2013-07-05 20:46:00,
2013-07-05 15:51:00,75.9,70.4,29.91,ESE,107,11.0,19.0,83,0.00,,,1.72,Wunderground v.1.15,2013-07-05 20:51:00,
2013-07-05 15:56:00,76.4,71.6,29.90,SE,139,7.0,20.0,85,0.00,,,1.72,Wunderground v.1.15,2013-07-05 20:56:00,
2013-07-05 16:01:00,76.6,71.7,29.91,ESE,110,9.0,20.0,85,0.00,,,1.72,Wunderground v.1.15,2013-07-05 21:01:00,
2013-07-05 16:06:00,76.6,71.7,29.91,East,96,5.0,20.0,85,0.00,,,1.72,Wunderground v.1.15,2013-07-05 21:06:00,
2013-07-05 16:11:00,76.6,71.7,29.93,East,101,15.0,15.0,85,0.00,,,1.72,Wunderground v.1.15,2013-07-05 21:11:00,
2013-07-05 16:16:00,76.8,70.9,29.94,SE,138,5.0,15.0,82,0.00,,,1.72,Wunderground v.1.15,2013-07-05 21:16:00,
2013-07-05 16:21:00,76.8,71.6,29.94,South,181,5.0,12.0,84,0.00,,,1.72,Wunderground v.1.15,2013-07-05 21:21:00,
2013-07-05 16:26:00,76.9,72.0,29.95,SSE,163,4.0,13.0,85,0.00,,,1.72,Wunderground v.1.15,2013-07-05 21:26:00,
2013-07-05 16:31:00,76.9,71.0,29.95,ESE,108,14.0,16.0,82,0.00,,,1.72,Wunderground v.1.15,2013-07-05 21:31:00,
2013-07-05 16:36:00,77.2,72.0,29.96,SE,129,4.0,17.0,84,0.00,,,1.72,Wunderground v.1.15,2013-07-05 21:36:00,
2013-07-05 16:41:00,77.4,71.5,29.96,SE,125,13.0,16.0,82,0.00,,,1.72,Wunderground v.1.15,2013-07-05 21:41:00,
2013-07-05 16:46:00,77.5,71.6,29.96,East,91,7.0,17.0,82,0.00,,,1.72,Wunderground v.1.15,2013-07-05 21:46:00,
2013-07-05 16:51:00,77.7,72.1,29.96,East,99,9.0,13.0,83,0.00,,,1.72,Wunderground v.1.15,2013-07-05 21:51:00,
2013-07-05 16:56:00,77.7,72.5,29.95,East,96,6.0,13.0,84,0.00,,,1.72,Wunderground v.1.15,2013-07-05 21:56:00,
2013-07-05 17:01:00,77.7,72.5,29.95,ESE,122,9.0,15.0,84,0.00,,,1.72,Wunderground v.1.15,2013-07-05 22:01:00,
2013-07-05 17:06:00,77.7,73.2,29.94,SSE,160,9.0,18.0,86,0.00,,,1.72,Wunderground v.1.15,2013-07-05 22:06:00,
2013-07-05 17:11:00,77.5,73.3,29.95,South,180,3.0,14.0,87,0.00,,,1.72,Wunderground v.1.15,2013-07-05 22:11:00,
2013-07-05 17:16:00,77.4,73.9,29.96,ESE,103,6.0,14.0,89,0.00,,,1.72,Wunderground v.1.15,2013-07-05 22:16:00,
2013-07-05 17:21:00,77.2,73.7,29.97,ESE,110,10.0,11.0,89,0.00,,,1.72,Wunderground v.1.15,2013-07-05 22:21:00,
2013-07-05 17:26:00,76.9,73.4,29.96,ESE,102,9.0,13.0,89,0.00,,,1.72,Wunderground v.1.15,2013-07-05 22:26:00,
2013-07-05 17:31:00,76.8,73.3,29.96,SE,142,7.0,11.0,89,0.00,,,1.72,Wunderground v.1.15,2013-07-05 22:31:00,
2013-07-05 17:36:00,76.7,72.9,29.96,ESE,114,4.0,14.0,88,0.00,,,1.72,Wunderground v.1.15,2013-07-05 22:36:00,
2013-07-05 17:41:00,76.8,73.0,29.96,SSE,156,4.0,10.0,88,0.00,,,1.72,Wunderground v.1.15,2013-07-05 22:41:00,
2013-07-05 17:46:00,76.9,73.4,29.97,SE,125,7.0,10.0,89,0.00,,,1.72,Wunderground v.1.15,2013-07-05 22:46:00,
2013-07-05 17:51:00,77.0,73.2,29.97,ESE,120,3.0,7.0,88,0.00,,,1.72,Wunderground v.1.15,2013-07-05 22:51:00,
2013-07-05 17:56:00,77.1,73.3,29.97,ESE,117,3.0,10.0,88,0.00,,,1.72,Wunderground v.1.15,2013-07-05 22:56:00,
2013-07-05 18:01:00,77.2,73.0,29.97,ESE,115,5.0,8.0,87,0.00,,,1.72,Wunderground v.1.15,2013-07-05 23:01:00,
2013-07-05 18:02:00,77.2,73.0,29.97,ESE,104,6.0,8.0,87,0.00,,,1.72,Wunderground v.1.15,2013-07-05 23:02:00,
2013-07-05 18:07:00,77.3,73.1,29.97,SE,135,4.0,9.0,87,0.00,,,1.72,Wunderground v.1.15,2013-07-05 23:07:00,
2013-07-05 18:12:00,77.4,72.9,29.97,SE,125,6.0,12.0,86,0.00,,,1.72,Wunderground v.1.15,2013-07-05 23:12:00,
2013-07-05 18:17:00,77.5,73.0,29.97,SE,129,6.0,17.0,86,0.00,,,1.72,Wunderground v.1.15,2013-07-05 23:17:00,
2013-07-05 18:22:00,77.5,73.0,29.97,ESE,118,10.0,12.0,86,0.00,,,1.72,Wunderground v.1.15,2013-07-05 23:22:00,
2013-07-05 18:27:00,77.6,73.1,29.97,ESE,117,9.0,14.0,86,0.00,,,1.72,Wunderground v.1.15,2013-07-05 23:27:00,
2013-07-05 18:32:00,77.7,72.8,29.97,SE,132,10.0,15.0,85,0.00,,,1.72,Wunderground v.1.15,2013-07-05 23:32:00,
2013-07-05 18:37:00,77.8,73.3,29.97,ESE,115,6.0,16.0,86,0.00,,,1.72,Wunderground v.1.15,2013-07-05 23:37:00,
2013-07-05 18:42:00,77.9,73.4,29.97,ESE,122,9.0,15.0,86,0.00,,,1.72,Wunderground v.1.15,2013-07-05 23:42:00,
2013-07-05 18:47:00,77.9,73.4,29.97,SE,129,11.0,17.0,86,0.00,,,1.72,Wunderground v.1.15,2013-07-05 23:47:00,
2013-07-05 18:52:00,77.9,73.4,29.98,East,101,5.0,14.0,86,0.00,,,1.72,Wunderground v.1.15,2013-07-05 23:52:00,
2013-07-05 18:57:00,78.0,73.1,29.98,SE,146,7.0,14.0,85,0.00,,,1.72,Wunderground v.1.15,2013-07-05 23:57:00,
2013-07-05 19:02:00,78.0,73.5,29.98,ESE,110,11.0,15.0,86,0.00,,,1.72,Wunderground v.1.15,2013-07-06 00:02:00,
2013-07-05 19:07:00,78.0,73.8,29.98,SSE,148,7.0,15.0,87,0.00,,,1.72,Wunderground v.1.15,2013-07-06 00:07:00,
2013-07-05 19:12:00,78.0,73.5,29.98,SE,136,7.0,10.0,86,0.00,,,1.72,Wunderground v.1.15,2013-07-06 00:12:00,
2013-07-05 19:13:00,78.0,73.8,29.98,ESE,122,5.0,10.0,87,0.00,,,1.72,Wunderground v.1.15,2013-07-06 00:13:00,
2013-07-05 19:18:00,77.9,73.4,29.98,SE,129,6.0,11.0,86,0.00,,,1.72,Wunderground v.1.15,2013-07-06 00:18:00,
2013-07-05 19:23:00,77.9,73.7,29.97,ESE,117,7.0,12.0,87,0.00,,,1.72,Wunderground v.1.15,2013-07-06 00:23:00,
2013-07-05 19:28:00,77.9,73.4,29.97,ESE,117,8.0,13.0,86,0.00,,,1.72,Wunderground v.1.15,2013-07-06 00:28:00,
2013-07-05 19:33:00,77.8,72.9,29.96,SE,135,12.0,15.0,85,0.00,,,1.72,Wunderground v.1.15,2013-07-06 00:33:00,
2013-07-05 19:38:00,77.9,73.4,29.96,SE,142,9.0,15.0,86,0.00,,,1.72,Wunderground v.1.15,2013-07-06 00:38:00,
2013-07-05 19:43:00,77.9,73.4,29.96,ESE,105,11.0,18.0,86,0.00,,,1.72,Wunderground v.1.15,2013-07-06 00:43:00,
2013-07-05 19:48:00,77.9,73.7,29.96,ESE,108,8.0,18.0,87,0.00,,,1.72,Wunderground v.1.15,2013-07-06 00:48:00,
2013-07-05 19:53:00,77.9,73.7,29.96,SE,125,14.0,15.0,87,0.00,,,1.72,Wunderground v.1.15,2013-07-06 00:53:00,
2013-07-05 19:58:00,77.9,73.4,29.96,ESE,122,12.0,21.0,86,0.00,,,1.72,Wunderground v.1.15,2013-07-06 00:58:00,
2013-07-05 20:03:00,77.9,73.4,29.95,SE,142,7.0,18.0,86,0.00,,,1.72,Wunderground v.1.15,2013-07-06 01:03:00,
2013-07-05 20:08:00,77.9,74.1,29.95,ESE,104,7.0,19.0,88,0.00,,,1.72,Wunderground v.1.15,2013-07-06 01:08:00,
2013-07-05 20:13:00,77.7,73.5,29.95,ESE,113,10.0,20.0,87,0.00,,,1.72,Wunderground v.1.15,2013-07-06 01:13:00,
2013-07-05 20:18:00,77.6,73.8,29.95,SE,129,13.0,20.0,88,0.00,,,1.72,Wunderground v.1.15,2013-07-06 01:18:00,
2013-07-05 20:23:00,77.6,73.8,29.95,SSE,152,11.0,19.0,88,0.00,,,1.72,Wunderground v.1.15,2013-07-06 01:23:00,
2013-07-05 20:28:00,77.5,73.7,29.96,ESE,104,7.0,19.0,88,0.00,,,1.72,Wunderground v.1.15,2013-07-06 01:28:00,
2013-07-05 20:33:00,77.3,73.5,29.96,SE,128,7.0,19.0,88,0.00,,,1.72,Wunderground v.1.15,2013-07-06 01:33:00,
2013-07-05 20:38:00,77.2,73.7,29.96,East,96,7.0,19.0,89,0.00,,,1.72,Wunderground v.1.15,2013-07-06 01:38:00,
2013-07-05 20:43:00,77.2,74.0,29.96,SE,125,8.0,15.0,90,0.00,,,1.72,Wunderground v.1.15,2013-07-06 01:43:00,
2013-07-05 20:48:00,77.1,73.9,29.96,East,82,7.0,15.0,90,0.00,,,1.72,Wunderground v.1.15,2013-07-06 01:48:00,
2013-07-05 20:53:00,77.0,73.2,29.96,ESE,122,8.0,17.0,88,0.00,,,1.72,Wunderground v.1.15,2013-07-06 01:53:00,
2013-07-05 20:58:00,77.0,73.2,29.96,ESE,104,10.0,17.0,88,0.00,,,1.72,Wunderground v.1.15,2013-07-06 01:58:00,
2013-07-05 21:03:00,77.0,72.8,29.96,ESE,104,10.0,17.0,87,0.00,,,1.72,Wunderground v.1.15,2013-07-06 02:03:00,
2013-07-05 21:08:00,77.1,73.3,29.97,SE,125,3.0,17.0,88,0.00,,,1.72,Wunderground v.1.15,2013-07-06 02:08:00,
2013-07-05 21:13:00,77.2,73.7,29.97,East,82,5.0,11.0,89,0.00,,,1.72,Wunderground v.1.15,2013-07-06 02:13:00,
2013-07-05 21:18:00,77.2,72.7,29.96,ESE,104,9.0,13.0,86,0.00,,,1.72,Wunderground v.1.15,2013-07-06 02:18:00,
2013-07-05 21:24:00,77.2,72.7,29.96,ENE,73,9.0,15.0,86,0.00,,,1.72,Wunderground v.1.15,2013-07-06 02:24:00,
2013-07-05 21:29:00,77.2,73.0,29.95,ESE,108,7.0,15.0,87,0.00,,,1.72,Wunderground v.1.15,2013-07-06 02:29:00,
2013-07-05 21:34:00,77.3,72.4,29.96,SE,129,2.0,15.0,85,0.00,,,1.72,Wunderground v.1.15,2013-07-06 02:34:00,
2013-07-05 21:38:00,77.4,72.9,29.97,SE,125,3.0,15.0,86,0.00,,,1.72,Wunderground v.1.15,2013-07-06 02:38:00,
2013-07-05 21:43:00,77.5,73.0,29.97,ESE,122,5.0,11.0,86,0.00,,,1.72,Wunderground v.1.15,2013-07-06 02:43:00,
2013-07-05 21:48:00,77.6,73.1,29.97,ESE,115,4.0,11.0,86,0.00,,,1.72,Wunderground v.1.15,2013-07-06 02:48:00,
2013-07-05 21:54:00,77.7,72.8,29.97,ESE,118,2.0,10.0,85,0.00,,,1.72,Wunderground v.1.15,2013-07-06 02:54:00,
2013-07-05 21:59:00,77.8,73.3,29.98,SE,139,2.0,10.0,86,0.00,,,1.72,Wunderground v.1.15,2013-07-06 02:59:00,
2013-07-05 22:04:00,78.0,72.8,29.98,SE,142,4.0,12.0,84,0.00,,,1.72,Wunderground v.1.15,2013-07-06 03:04:00,
2013-07-05 22:09:00,78.3,73.1,29.98,East,99,6.0,12.0,84,0.00,,,1.72,Wunderground v.1.15,2013-07-06 03:09:00,
2013-07-05 22:14:00,78.6,73.0,29.98,ESE,122,3.0,11.0,83,0.00,,,1.72,Wunderground v.1.15,2013-07-06 03:14:00,
2013-07-05 22:19:00,78.7,72.0,29.98,SE,132,2.0,11.0,80,0.00,,,1.72,Wunderground v.1.15,2013-07-06 03:19:00,
2013-07-05 22:24:00,78.8,72.1,29.98,ESE,107,5.0,12.0,80,0.00,,,1.72,Wunderground v.1.15,2013-07-06 03:24:00,
2013-07-05 22:29:00,78.8,72.8,29.98,SSE,150,3.0,12.0,82,0.00,,,1.72,Wunderground v.1.15,2013-07-06 03:29:00,
2013-07-05 22:34:00,78.8,72.5,29.99,South,190,3.0,10.0,81,0.00,,,1.72,Wunderground v.1.15,2013-07-06 03:34:00,
2013-07-05 22:39:00,78.8,73.2,29.98,SE,136,1.0,10.0,83,0.00,,,1.72,Wunderground v.1.15,2013-07-06 03:39:00,
2013-07-05 22:44:00,78.7,72.7,29.99,ESE,108,3.0,11.0,82,0.00,,,1.72,Wunderground v.1.15,2013-07-06 03:44:00,
2013-07-05 22:49:00,78.8,73.6,29.99,SE,126,5.0,5.0,84,0.00,,,1.72,Wunderground v.1.15,2013-07-06 03:49:00,
2013-07-05 22:54:00,78.6,73.0,29.99,SSE,148,3.0,7.0,83,0.00,,,1.72,Wunderground v.1.15,2013-07-06 03:54:00,
2013-07-05 22:59:00,78.6,73.0,29.99,SSE,166,2.0,4.0,83,0.00,,,1.72,Wunderground v.1.15,2013-07-06 03:59:00,
2013-07-05 23:01:00,78.6,73.0,29.99,SE,138,7.0,7.0,83,0.00,,,1.72,Wunderground v.1.15,2013-07-06 04:01:00,
2013-07-05 23:02:00,78.6,73.4,29.99,SE,128,3.0,7.0,84,0.00,,,1.72,Wunderground v.1.15,2013-07-06 04:02:00,
2013-07-05 23:07:00,78.6,73.4,29.99,SE,136,4.0,7.0,84,0.00,,,1.72,Wunderground v.1.15,2013-07-06 04:07:00,
2013-07-05 23:12:00,78.6,72.6,29.99,SE,127,5.0,11.0,82,0.00,,,1.72,Wunderground v.1.15,2013-07-06 04:12:00,
2013-07-05 23:17:00,78.7,73.1,29.99,SE,132,4.0,11.0,83,0.00,,,1.72,Wunderground v.1.15,2013-07-06 04:17:00,
2013-07-05 23:22:00,78.7,72.7,29.99,SE,129,2.0,5.0,82,0.00,,,1.72,Wunderground v.1.15,2013-07-06 04:22:00,
2013-07-05 23:28:00,78.8,73.2,29.99,SE,138,5.0,9.0,83,0.00,,,1.72,Wunderground v.1.15,2013-07-06 04:28:00,
2013-07-05 23:33:00,78.8,72.8,29.99,SSE,164,2.0,5.0,82,0.00,,,1.72,Wunderground v.1.15,2013-07-06 04:33:00,
2013-07-05 23:38:00,78.7,73.5,29.99,SE,131,1.0,5.0,84,0.00,,,1.72,Wunderground v.1.15,2013-07-06 04:38:00,
2013-07-05 23:43:00,78.7,73.1,29.99,SE,125,1.0,5.0,83,0.00,,,1.72,Wunderground v.1.15,2013-07-06 04:43:00,
2013-07-05 23:48:00,78.7,73.5,30.00,East,90,2.0,5.0,84,0.00,,,1.72,Wunderground v.1.15,2013-07-06 04:48:00,
2013-07-05 23:53:00,78.7,73.5,30.00,SE,127,3.0,5.0,84,0.00,,,1.72,Wunderground v.1.15,2013-07-06 04:53:00,
2013-07-05 23:58:00,78.7,73.1,30.00,ESE,111,3.0,5.0,83,0.00,,,0.00,Wunderground v.1.15,2013-07-06 04:58:00,